Rome, GA

12:30 PM EST on November 13, 2019 (GMT -0500)
Russell

Weather History for KRMG - September, 2019

Change the Weather History Date:

Thursday, September 5, 2019

  Actual Average Record
Temperature  
Mean Temperature 82 °F 75 °F  
Max Temperature 93 °F 87 °F 99 °F (1999)
Min Temperature 72 °F 64 °F 7 °F (1996)
Degree Days  
Heating Degree Days 0 0  
Month to date heating degree days 0 0  
Since 1 July heating degree days 0 0  
Cooling Degree Days 18 10  
Month to date cooling degree days 79 54  
Year to date cooling degree days 1838 1420  
Growing Degree Days 32 (Base 50)    
Moisture  
Dew Point 64 °F    
Average Humidity 57    
Maximum Humidity 90    
Minimum Humidity 32    
Precipitation  
Precipitation 0.00 in 0.08 in 5.50 in (2011)
Month to date precipitation 0.00 0.43  
Year to date precipitation 42.45 35.85  
Sea Level Pressure  
Sea Level Pressure 29.91 in    
Wind  
Wind Speed 5 mph ()    
Max Wind Speed 17 mph    
Max Gust Speed 22 mph    
Visibility 10.0 miles    
Events      
T = Trace of Precipitation, MM = Missing Value Source: Averaged Metar Reports

Daily Weather History Graph

Daily Weather History Graph

Search for Another Location

Airport or City:

Astronomy

Sep. 05, 2019 Rise Set
Actual Time 7:16 AM EDT 8:01 PM EDT
Civil Twilight 6:51 AM EDT 8:27 PM EDT
Nautical Twilight 6:21 AM EDT 8:57 PM EDT
Astronomical Twilight 5:50 AM EDT 9:27 PM EDT
Moon 2:04 PM EDT (9/5) No Moon Set
Length of Visible Light 13h 35m
Length of Day
12h 44m
Waxing Crescent, 45% of the Moon is Illuminated
Sep 5
Waxing Crescent
Sep 5
First Quarter
Sep 14
Full
Sep 21
Last Quarter
Sep 28
New

Hourly Weather History & Observations

Time (EDT) Temp. Heat Index Dew Point Humidity Pressure Visibility Wind Dir Wind Speed Gust Speed Precip Events Conditions
12:53 AM 75.0 °F - 68.0 °F 79% 29.93 in 10.0 mi Calm Calm - N/A   Clear
1:53 AM 75.0 °F - 68.0 °F 79% 29.93 in 10.0 mi Calm Calm - N/A   Clear
2:53 AM 73.0 °F - 68.0 °F 84% 29.92 in 10.0 mi Calm Calm - N/A   Clear
3:53 AM 72.0 °F - 68.0 °F 87% 29.91 in 10.0 mi Calm Calm - N/A   Clear
4:53 AM 78.1 °F - 69.1 °F 74% 29.91 in 10.0 mi NW 6.9 mph - N/A   Clear
5:53 AM 77.0 °F - 69.1 °F 76% 29.91 in 10.0 mi NW 9.2 mph - N/A   Clear
6:53 AM 75.9 °F - 69.1 °F 79% 29.92 in 10.0 mi NW 5.8 mph - N/A   Clear
7:53 AM 75.9 °F - 69.1 °F 79% 29.94 in 10.0 mi NNW 4.6 mph - N/A   Clear
8:53 AM 80.1 °F 83.2 °F 70.0 °F 71% 29.94 in 10.0 mi North 3.5 mph - N/A   Clear
9:53 AM 82.9 °F 87.0 °F 70.0 °F 65% 29.94 in 10.0 mi NNW 9.2 mph - N/A   Clear
10:53 AM 86.0 °F 90.7 °F 70.0 °F 59% 29.94 in 10.0 mi NNW 9.2 mph - N/A   Clear
11:53 AM 88.0 °F 90.3 °F 66.0 °F 48% 29.92 in 10.0 mi NNW 13.8 mph - N/A   Clear
12:53 PM 90.0 °F 90.3 °F 62.1 °F 39% 29.91 in 10.0 mi NNW 13.8 mph 18.4 mph N/A   Clear
1:53 PM 90.0 °F 89.7 °F 60.1 °F 37% 29.90 in 10.0 mi NW 11.5 mph 18.4 mph N/A   Clear
2:53 PM 91.9 °F 91.2 °F 59.0 °F 33% 29.89 in 10.0 mi NW 10.4 mph - N/A   Clear
3:53 PM 91.9 °F 91.2 °F 59.0 °F 33% 29.87 in 10.0 mi NNW 11.5 mph - N/A   Clear
4:53 PM 91.9 °F 91.2 °F 59.0 °F 33% 29.86 in 10.0 mi NW 9.2 mph - N/A   Clear
5:53 PM 91.0 °F 90.0 °F 57.9 °F 33% 29.86 in 10.0 mi NNW 11.5 mph - N/A   Clear
6:53 PM 89.1 °F 88.0 °F 57.9 °F 35% 29.87 in 10.0 mi NW 9.2 mph - N/A   Clear
7:53 PM 84.9 °F 84.4 °F 59.0 °F 41% 29.88 in 10.0 mi NW 9.2 mph - N/A   Clear
8:53 PM 82.0 °F 82.1 °F 59.0 °F 45% 29.89 in 10.0 mi NNW 8.1 mph - N/A   Clear
9:53 PM 80.1 °F 80.7 °F 59.0 °F 48% 29.91 in 10.0 mi NNW 8.1 mph - N/A   Clear
10:53 PM 78.1 °F - 61.0 °F 56% 29.91 in 10.0 mi NNW 8.1 mph - N/A   Clear
11:53 PM 75.9 °F - 61.0 °F 60% 29.91 in 10.0 mi NNW 8.1 mph - N/A   Clear